Location: Carnières
(50.1682°N, 3.3474°E)
Time: 05:57:15
(UTC+00:00)

MOZ.5/SAFIR/RUBIN 5/SL-8 - Pass Details

Date: 17 August 2024
Orbit: 671 x 698 km, 98.3° (Epoch: 08 September)

Event Time Altitude Azimuth Distance (km) Brightness Sun altitude
Exits shadow 01:33:17 62° 231° (SW) 786 3.7 -22.7°
Maximum altitude 01:33:39 64° 258° (WSW) 771 3.8 -22.6°
Drops below altitude 10° 01:38:23 10° 340° (NNW) 2,172 6.9 -22.3°
Sets 01:40:40 0° 344° (NNW) 3,096 7.8 -22.1°
